Dewpoint
73 75 74 74 76 75 73 71 59 61 61 58 57 59 58 63 63 62 61 63 61 62 62 61 59 57 58 55 57 57 56 57 56 54 56 63 66 67 68 69 70 71 71 72 75 75 75 76 77 76 76 76 75 75 75 75 76 76 76 75 75 75 75 76 77 77 77 77 77 77 76 76 75 75 76 76 76 76 76 75 75 75 75 75 75 76 76 75 75 75 75 75 75 75 75 75 74
71 72 75 77 75 73 67 69 60 59 59 58 58 61 60 62 62 60 60 62 62 62 62 61 60 58 59 58 57 56 57 58 59 59 61 63 64 66 68 70 70 70 71 73 73 73 74 76 77 76 76 76 76 76 76 75 76 76 76 76 76 75 76 76 77 77 77 76 76 76 76 76 76 76 76 76 75 75 75 75 75 75 75 75 76 75 75 75 75 75 75 74 74 75 75 75 75
70 73 76 76 75 71 70 67 57 58 56 54 59 59 62 61 61 61 63 64 64 62 61 61 62 61 58 58 58 58 57 59 59 60 60 62 63 67 69 69 69 71 71 72 72 72 74 76 77 77 77 76 76 76 76 76 76 76 76 76 76 76 75 76 76 76 76 76 76 76 76 76 76 76 76 75 75 75 75 75 75 75 75 75 75 76 75 75 75 75 74 74 75 75 75 75 75
72 74 75 75 68 72 65 64 60 57 55 56 58 62 63 62 62 63 65 64 62 60 61 61 61 64 58 58 57 58 57 57 60 60 60 62 63 64 69 70 71 69 70 70 71 72 74 76 76 77 77 77 76 76 76 75 76 76 76 76 76 76 76 76 76 76 76 76 76 76 76 76 75 76 76 75 75 75 76 75 75 75 75 76 75 75 75 74 75 75 75 75 75 75 75 74 75
69 73 76 75 68 63 63 60 60 61 55 58 55 62 61 62 63 65 66 63 62 60 62 63 60 61 64 64 64 57 55 57 58 60 60 61 62 64 68 69 68 68 68 69 71 72 74 76 77 77 77 77 76 75 75 75 75 75 75 76 76 76 76 76 76 76 76 76 77 76 76 76 75 75 75 75 74 75 76 76 76 75 75 76 76 75 75 74 74 74 74 74 75 74 75 74 74
69 73 73 73 66 69 66 59 59 59 58 60 57 59 62 64 65 65 66 64 63 61 62 63 61 60 62 63 65 61 57 56 58 59 59 60 61 64 66 68 66 67 68 70 71 73 74 77 76 76 76 76 76 76 75 75 75 75 75 76 76 76 76 76 76 77 77 77 76 76 76 76 75 75 75 75 75 75 76 75 75 76 76 76 76 75 74 74 75 75 75 75 75 75 75 74 75
68 73 73 73 70 69 59 59 59 59 59 62 60 62 63 64 65 66 66 66 64 64 66 62 61 60 61 63 62 60 59 58 60 59 60 60 62 63 65 66 67 67 69 71 72 73 74 77 77 77 76 76 76 76 76 76 76 76 76 76 76 76 77 76 77 77 77 76 76 76 76 75 75 75 75 75 75 75 75 76 76 75 76 75 75 74 75 75 75 75 75 75 74 74 74 74 74
69 67 67 64 62 64 59 59 60 59 60 62 63 63 64 65 66 65 64 63 63 64 65 63 64 64 64 65 63 61 59 59 59 60 60 61 61 62 64 67 68 68 70 71 72 74 78 77 77 77 77 77 76 76 76 76 76 76 76 76 76 76 76 76 76 76 76 75 75 75 76 76 75 75 75 75 76 76 76 75 75 75 76 75 75 75 74 75 75 75 75 75 75 74 74 74 74
72 67 70 65 60 61 60 59 60 61 61 63 64 65 66 65 65 65 64 65 65 66 65 63 62 61 65 64 66 67 60 60 60 63 61 60 60 62 63 66 69 69 70 71 74 76 77 78 77 77 77 77 77 77 76 77 77 77 77 76 76 76 76 76 76 76 76 76 75 75 76 76 75 75 75 75 76 75 75 75 75 75 75 76 76 74 75 75 75 75 75 74 75 74 74 74 74
71 70 63 63 61 57 59 60 59 59 62 63 63 65 65 66 65 66 64 64 65 65 65 66 64 63 64 64 64 68 64 59 60 60 60 60 61 62 64 66 69 71 71 71 73 74 76 78 78 77 77 77 77 77 77 77 77 77 76 76 76 76 76 76 76 76 76 75 76 75 75 75 76 76 75 76 76 75 75 75 75 75 75 75 75 75 75 75 75 75 75 75 75 75 75 75 75
66 69 67 61 56 55 55 57 59 60 63 64 64 66 67 67 66 64 65 64 66 65 66 65 65 65 67 67 67 71 71 59 59 60 60 61 62 62 64 66 68 71 71 70 71 73 75 76 78 78 77 77 77 77 77 77 77 76 76 76 76 76 76 76 76 76 76 75 76 76 76 76 76 76 76 76 75 75 76 76 75 75 75 75 75 76 75 75 75 75 75 75 75 75 75 75 75
62 63 63 58 53 54 58 57 60 61 62 63 63 65 67 67 65 64 65 64 65 66 66 68 64 67 65 64 65 68 64 61 62 60 60 61 60 61 63 64 67 69 70 70 71 72 73 76 76 78 77 77 77 77 77 77 77 77 76 76 76 76 76 76 76 76 76 76 77 77 77 77 76 76 76 76 76 76 76 76 75 75 75 75 75 77 76 76 76 76 76 76 75 75 75 75 75
58 64 60 57 57 57 58 58 59 60 61 63 63 64 67 66 64 65 65 65 66 65 65 68 67 66 64 66 66 68 64 61 61 59 59 60 60 60 61 63 66 68 71 72 71 71 73 74 74 77 76 78 77 77 77 77 77 77 77 76 76 76 76 76 77 77 77 77 77 77 77 77 77 77 76 76 76 76 76 75 76 76 75 75 75 76 76 76 76 76 76 76 76 76 76 76 75
59 61 61 57 55 59 59 58 60 57 60 62 64 67 67 65 65 66 67 64 66 65 68 69 67 68 66 67 65 67 69 62 60 58 59 60 60 60 60 61 64 67 69 70 71 72 73 73 74 75 76 77 77 77 77 77 77 77 77 77 77 77 77 77 77 77 77 77 77 77 77 77 77 77 77 77 77 76 76 76 76 76 76 76 76 75 77 77 77 76 77 76 76 76 75 75 75
58 61 61 61 54 55 57 58 56 58 59 62 65 66 66 67 67 67 67 65 65 69 69 70 68 65 61 65 64 67 64 64 60 60 60 60 60 60 60 60 62 64 67 69 70 71 72 73 73 75 76 76 76 77 77 76 77 77 77 77 77 77 77 77 77 77 77 77 77 77 77 77 77 77 77 77 77 77 76 76 76 76 76 76 76 76 76 77 77 77 77 77 77 76 76 76 76
57 61 59 53 52 52 54 57 59 58 59 63 66 66 65 68 68 67 68 68 68 70 69 66 70 66 65 65 66 66 65 64 62 66 61 60 60 59 60 60 61 63 65 69 71 70 72 72 73 74 75 75 76 75 76 77 77 77 77 77 77 77 77 77 77 77 77 77 77 77 77 77 77 76 77 76 77 77 76 75 75 76 77 76 77 77 77 77 77 77 77 76 76 76 76 76 76
54 59 57 52 52 52 53 57 57 58 61 64 66 65 62 65 68 69 71 69 67 67 68 68 68 67 67 66 68 66 63 66 68 67 63 61 62 61 62 62 61 63 64 67 69 71 71 72 72 73 73 72 75 75 76 76 77 77 77 77 77 77 77 77 77 77 78 77 77 77 77 76 77 76 75 76 77 76 76 76 76 76 77 77 77 77 77 77 77 77 77 77 77 77 76 76 76
56 55 49 50 52 52 54 55 58 60 60 64 63 64 62 62 66 68 69 68 67 66 67 68 69 67 69 69 69 68 63 63 64 63 62 60 61 61 61 62 62 62 64 66 68 68 70 71 71 71 71 72 73 75 75 76 77 77 77 77 77 77 77 77 77 76 78 77 78 77 77 77 75 76 75 76 76 76 75 77 77 78 78 78 78 77 77 77 77 77 76 77 77 77 77 77 76
54 58 48 50 53 54 55 57 58 61 62 64 65 65 62 63 65 66 64 65 65 64 65 67 66 68 69 69 68 67 65 65 63 64 61 59 60 60 61 63 63 62 63 65 66 66 67 69 68 67 67 72 73 74 74 76 76 77 77 77 77 77 77 77 76 77 77 77 77 76 78 75 74 75 77 74 74 75 74 77 78 78 78 78 78 77 77 77 77 77 78 77 77 78 76 78 76
42 52 50 48 56 52 53 56 58 63 63 63 63 62 63 65 64 67 64 63 64 63 63 65 66 66 67 66 66 66 66 65 64 63 64 62 62 59 61 61 62 63 63 63 65 64 66 67 65 64 67 69 73 74 73 75 76 76 76 76 77 76 76 76 76 76 77 77 75 76 76 76 74 76 75 76 76 75 75 77 78 79 79 78 78 77 77 77 78 78 78 78 77 76 75 75 76
44 46 46 47 50 52 52 54 57 59 59 61 61 62 63 65 65 66 64 62 63 65 66 65 65 65 66 66 66 66 65 66 64 64 63 62 62 60 58 58 60 62 62 63 64 63 63 64 64 64 67 69 70 71 73 74 76 75 74 76 76 76 75 75 75 75 76 77 76 76 74 73 72 74 74 74 75 77 75 75 76 77 78 78 78 78 78 77 76 76 76 77 77 76 75 75 76
43 44 45 47 49 51 52 54 58 58 61 61 63 62 61 64 63 64 64 62 61 65 66 67 66 67 66 65 64 66 66 66 64 65 63 63 57 59 58 57 57 58 60 61 61 63 62 62 62 63 65 67 70 71 69 71 73 72 73 75 74 75 74 75 74 75 75 76 76 74 74 72 71 72 72 74 75 77 75 77 77 77 78 78 79 78 78 77 76 75 74 75 75 76 76 76 75
49 44 46 48 49 50 52 53 55 61 61 62 64 62 60 62 63 63 62 63 63 65 65 66 65 66 67 66 65 66 66 66 65 67 66 64 63 60 59 55 55 55 57 60 58 61 60 59 60 61 64 66 69 70 71 72 71 72 70 71 71 72 73 72 73 73 74 75 74 74 71 71 71 69 70 76 74 73 73 74 75 76 78 77 78 77 77 77 75 74 76 76 78 76 76 77 76
42 42 45 46 46 47 51 54 63 60 62 62 60 61 61 63 62 64 60 59 62 63 63 60 63 65 66 65 65 66 67 67 67 68 67 66 67 63 63 58 55 57 57 59 57 59 61 57 60 61 62 64 69 69 71 70 71 68 67 73 73 71 72 70 71 71 71 75 74 72 73 69 67 70 70 71 71 70 71 69 68 72 73 75 76 77 75 74 75 78 76 77 76 77 76 75 75
41 44 46 46 48 50 51 55 59 58 57 62 62 60 62 63 63 64 61 60 60 61 59 60 62 64 64 64 65 66 67 68 68 69 68 65 67 65 62 63 54 57 53 56 57 57 57 59 59 60 62 64 66 67 66 68 71 70 68 68 71 72 73 70 69 72 69 73 73 73 72 67 65 65 69 69 69 67 72 70 69 66 74 74 72 73 78 78 78 78 78 77 77 77 78 76 75
42 42 43 44 45 49 53 54 55 54 55 58 59 60 61 61 64 61 61 60 60 60 60 60 61 62 62 64 66 67 67 68 68 68 67 67 68 66 63 61 54 53 51 54 55 57 53 57 57 58 62 63 65 64 68 69 71 70 71 72 71 75 70 71 70 67 68 67 67 72 69 66 63 64 67 68 67 70 69 67 72 69 68 72 72 73 74 78 78 80 77 77 76 75 75 78 75
41 41 42 44 45 48 52 51 52 52 57 61 60 59 61 59 60 55 59 60 62 59 60 60 59 60 61 63 65 67 67 68 69 69 69 68 67 66 66 64 60 54 52 52 52 56 57 55 57 57 61 69 64 63 67 71 72 71 71 70 73 73 72 74 73 68 67 66 68 75 74 75 68 66 65 67 68 69 71 72 74 71 72 69 71 71 77 75 75 78 78 78 77 77 76 77 77
37 41 43 44 46 46 49 49 51 56 56 62 63 57 57 55 55 54 57 59 59 57 59 60 60 60 60 61 64 67 67 67 66 68 68 68 65 65 64 61 62 61 58 52 53 54 54 54 56 57 59 63 67 62 70 67 71 70 74 72 69 70 75 72 68 69 70 68 68 76 75 71 73 67 65 65 65 71 67 69 70 74 71 70 71 71 71 73 75 76 74 78 79 78 77 75 77
43 44 49 44 45 45 49 49 55 57 56 60 62 58 55 54 54 53 55 59 57 54 56 57 59 60 59 61 64 66 66 67 66 67 68 67 65 67 65 64 65 65 59 68 57 48 54 52 58 62 59 63 64 62 64 66 68 67 69 69 71 69 72 71 69 69 69 71 74 73 78 75 78 71 69 71 72 66 70 67 72 72 70 73 73 73 74 73 72 73 76 77 77 77 79 75 74
42 44 47 46 45 45 48 51 54 55 57 59 60 49 51 57 56 53 54 56 57 53 55 55 57 58 59 61 63 65 66 66 66 67 67 67 66 66 68 68 67 65 62 67 59 53 55 54 61 63 64 63 66 62 72 68 68 69 71 69 73 71 69 70 69 68 69 73 75 76 72 74 74 74 72 72 71 72 70 69 67 68 75 76 74 75 76 72 72 75 76 75 74 74 73 74 74
39 41 39 42 42 41 43 47 51 53 57 61 56 52 47 59 54 52 54 54 54 55 54 55 58 58 60 61 63 64 66 66 66 67 69 69 67 66 68 68 69 71 63 65 60 61 59 64 69 69 65 68 66 67 67 70 73 69 69 71 71 72 71 70 67 69 66 67 70 73 74 76 75 73 77 74 70 72 68 67 70 77 77 75 74 77 75 73 76 74 75 75 74 74 73 73 72
40 38 37 38 34 40 44 46 51 49 52 57 54 52 53 49 50 50 52 52 56 57 57 55 56 57 60 61 62 62 65 65 68 67 68 68 68 66 67 68 68 70 70 67 67 64 63 67 68 64 71 68 70 70 70 74 70 70 72 71 73 77 70 70 68 66 65 65 69 75 78 77 77 77 75 78 74 73 68 66 74 78 77 76 76 76 75 73 75 75 75 74 73 73 73 72 73
34 31 40 24 26 38 41 47 48 47 47 53 53 48 55 49 52 51 60 56 54 55 59 58 56 57 61 60 62 62 65 66 66 65 66 67 69 66 68 70 69 70 69 71 68 67 67 67 67 66 67 66 71 68 73 72 76 71 74 69 68 77 72 70 70 67 67 72 75 77 77 79 76 79 78 78 78 72 70 70 76 77 76 75 76 76 76 76 76 75 76 76 75 73 73 71 72
29 30 27 23 32 31 40 43 44 43 45 49 51 47 45 46 48 50 53 56 55 57 62 62 62 62 61 62 60 61 64 65 66 65 67 66 67 70 69 68 71 70 70 69 72 73 72 73 70 71 73 75 74 76 76 75 76 76 75 74 76 74 74 71 70 71 72 71 70 73 77 79 81 79 78 77 80 74 76 76 76 76 76 77 77 77 77 77 77 76 75 76 75 74 73 72 72
25 20 21 24 34 35 38 39 41 43 46 47 51 50 47 48 49 49 49 50 57 53 58 66 60 64 64 63 67 64 64 64 65 67 67 69 70 72 70 70 70 69 70 72 71 73 74 73 76 74 75 75 76 77 75 73 77 76 76 76 75 76 76 74 75 73 71 71 71 75 74 75 79 78 79 77 78 79 76 77 76 76 77 77 77 76 76 74 75 76 75 75 75 74 73 73 72
21 19 18 17 28 31 32 38 42 44 59 48 46 49 46 48 49 51 49 51 54 56 58 63 64 64 66 63 68 67 68 62 64 66 66 68 69 70 70 72 70 70 71 73 73 73 72 73 74 77 77 78 79 78 77 75 75 75 77 78 77 76 77 76 76 75 75 75 76 77 77 75 78 79 78 78 76 78 77 78 77 76 77 78 75 75 75 75 74 74 74 73 73 73 74 74 73
20 19 17 25 26 35 37 41 42 44 50 47 49 48 47 48 52 52 50 50 50 54 59 60 64 64 64 66 67 65 67 67 71 72 70 69 71 70 72 72 73 71 71 73 73 73 73 73 72 73 74 74 76 77 80 78 78 78 77 77 77 77 77 78 76 77 77 77 77 77 77 77 76 76 77 77 77 79 78 79 77 77 77 76 74 74 74 74 75 74 74 74 73 72 73 75 73
19 17 15 20 20 39 39 39 43 43 45 46 49 47 48 51 50 53 52 52 50 51 59 61 62 62 67 64 65 67 69 69 70 70 71 69 71 73 72 72 71 72 73 73 73 75 75 73 73 74 74 74 75 77 77 78 77 78 76 78 76 76 77 77 76 77 77 75 76 78 77 77 76 76 77 77 78 78 78 77 77 76 76 74 74 74 74 75 75 74 74 73 73 73 72 72 72
20 17 14 13 16 22 30 36 42 41 38 50 45 40 46 51 52 53 50 49 51 53 58 60 63 63 66 65 65 65 67 69 69 69 70 70 72 73 72 71 71 71 72 73 72 74 74 74 73 73 75 75 76 76 77 78 79 78 76 77 76 75 76 76 76 76 77 76 75 76 77 77 77 76 76 77 77 76 77 77 76 76 74 74 75 75 75 74 75 74 74 72 72 74 73 72 72
17 16 12 17 16 25 27 32 36 32 32 36 42 41 46 50 51 51 49 50 55 57 59 63 63 64 63 64 66 67 65 67 69 69 69 70 72 72 72 72 72 73 73 74 73 73 74 74 74 73 74 75 77 77 76 77 77 76 77 76 75 75 75 76 75 78 77 77 76 75 77 77 76 75 75 75 76 75 77 76 76 75 74 75 75 74 75 74 74 74 73 72 72 70 68 70 70
20 18 16 18 19 24 21 27 32 27 30 35 36 43 44 47 47 46 53 53 54 58 59 61 63 64 63 65 66 67 67 68 68 69 70 71 71 72 73 72 73 73 73 73 72 73 73 73 73 73 75 76 77 78 77 78 77 77 76 74 75 74 75 75 75 75 75 75 76 76 76 75 75 76 76 75 75 74 74 76 76 74 75 75 76 75 74 73 73 73 72 72 71 71 69 68 70
18 16 15 15 16 23 27 26 26 28 30 30 30 33 36 41 39 42 47 51 55 57 59 59 62 64 65 64 64 66 68 68 67 68 70 71 72 72 72 72 73 73 73 74 73 73 73 73 73 74 76 77 78 77 77 77 77 75 73 71 72 70 70 72 72 73 73 74 74 76 76 75 74 75 75 74 74 73 74 74 73 74 75 76 76 75 74 74 73 72 72 72 71 72 72 69 67
17 16 17 14 15 19 23 26 26 28 28 31 27 32 35 38 39 41 46 47 52 56 57 56 63 66 64 64 64 63 64 67 66 68 69 71 71 72 72 73 72 73 72 74 74 74 73 74 74 75 76 77 77 76 76 78 76 75 73 71 71 71 72 74 75 74 73 74 75 75 75 75 74 73 74 73 72 73 73 74 74 75 76 76 75 74 74 72 74 72 72 72 71 72 72 69 66
14 16 16 15 17 21 24 22 19 22 26 27 27 31 33 38 40 40 42 44 55 56 57 56 59 57 61 64 63 66 64 65 67 69 70 71 72 72 72 72 72 72 72 74 74 73 74 75 76 76 76 76 76 76 76 77 76 76 73 72 74 73 74 75 75 75 75 75 76 74 74 76 75 74 74 72 72 72 72 73 74 74 74 74 74 73 75 75 73 73 72 71 72 75 72 69 64
16 16 16 16 16 18 19 18 19 20 18 32 22 29 36 38 39 39 44 41 47 53 54 54 57 55 56 62 59 64 65 66 67 68 69 71 72 72 72 72 70 72 72 72 73 73 73 74 74 74 74 75 75 74 76 74 75 76 75 74 74 74 73 75 75 74 75 76 74 75 74 74 74 74 74 74 71 71 72 73 73 75 75 74 75 75 74 73 72 71 72 74 72 73 66 65 68
15 16 16 16 15 16 16 15 16 19 23 25 27 31 32 32 35 39 39 44 43 49 51 52 52 55 56 59 62 64 64 67 68 68 69 71 71 72 72 71 71 72 70 72 72 73 73 74 74 74 74 74 75 74 75 74 74 74 73 73 72 74 75 74 73 74 74 74 73 73 73 73 73 74 73 73 73 73 73 73 74 73 73 72 75 74 72 71 71 67 65 64 67 68 68 65 64
18 16 14 14 14 15 14 19 20 18 29 26 25 35 25 31 35 33 37 37 41 45 49 51 53 54 55 57 62 63 64 66 67 69 69 70 71 72 72 72 73 72 72 73 72 72 72 73 73 73 73 75 74 75 74 74 74 73 74 73 72 72 72 73 74 74 74 73 73 73 73 73 73 73 72 73 73 72 72 73 73 73 73 72 72 71 71 70 61 63 64 68 68 67 63 62 62
18 15 15 16 19 15 20 16 20 16 22 20 27 29 31 32 33 34 37 37 41 44 46 49 48 51 56 59 58 60 66 66 67 69 69 70 71 71 72 71 72 72 72 71 71 71 71 72 72 72 72 73 75 74 73 73 73 74 73 73 73 73 73 73 73 73 73 72 72 72 73 73 72 71 71 72 72 72 73 74 73 73 75 72 70 68 66 64 65 66 67 69 66 67 65 64 62
16 16 17 13 20 20 17 19 15 17 28 22 25 26 31 33 34 37 39 37 38 44 43 45 47 51 58 58 57 57 56 65 67 68 68 68 68 67 67 70 70 70 71 70 72 71 71 72 73 73 72 73 74 74 73 73 73 73 74 73 73 74 74 74 73 73 74 74 74 72 72 72 72 72 70 70 73 72 73 73 73 71 73 72 75 72 71 71 69 67 63 60 63 64 62 62 61
14 14 14 16 17 19 18 19 18 13 15 21 21 25 30 32 35 39 40 42 42 44 47 47 49 50 52 54 56 56 60 65 68 67 68 67 68 67 69 69 69 70 70 70 71 71 71 71 71 70 71 73 73 73 73 73 73 73 73 73 73 74 73 73 72 70 69 74 75 72 71 70 71 69 70 72 71 69 69 70 72 69 72 72 72 73 73 71 73 68 64 63 60 66 65 63 61
8 9 9 16 19 11 16 17 17 14 27 18 23 23 30 32 35 38 41 43 45 44 43 46 50 52 52 52 54 54 56 62 63 67 65 66 67 68 69 69 69 69 70 70 70 71 70 70 72 72 72 72 73 73 73 73 72 73 74 74 74 74 73 75 74 72 71 68 65 64 67 67 69 69 71 71 72 69 66 68 65 68 70 73 73 72 64 67 71 68 67 68 66 62 63 60 55
11 12 12 14 16 16 12 14 12 10 12 25 26 30 34 35 40 40 41 40 41 45 48 50 46 46 48 50 52 52 55 59 60 63 65 66 67 69 69 69 69 69 70 68 68 69 69 70 71 71 71 72 72 73 73 72 73 72 74 74 74 74 74 74 72 73 73 68 66 66 68 69 68 68 69 71 70 70 66 65 69 69 73 73 69 70 69 66 68 66 67 64 63 61 59 55 52
10 10 11 11 11 10 14 14 8 9 9 19 27 32 37 39 37 37 42 40 41 44 46 48 48 55 56 56 56 53 53 57 62 65 64 67 68 68 69 69 68 68 68 68 69 68 69 70 70 71 71 71 70 72 72 72 73 72 72 72 72 71 71 70 69 68 64 70 72 67 66 66 67 69 67 69 72 69 68 68 70 71 71 69 70 70 65 67 67 64 63 65 61 57 59 54 53
13 7 10 11 9 9 12 11 19 11 8 18 26 26 39 36 34 38 37 39 41 46 46 45 51 54 56 61 63 62 55 56 62 62 65 67 68 68 68 67 67 68 67 67 68 68 69 69 69 70 69 69 69 68 69 69 71 69 70 71 71 71 70 71 71 67 69 70 67 68 67 68 66 66 67 66 69 68 70 71 70 70 67 67 67 64 63 64 66 64 63 60 61 62 59 56 54
13 12 12 9 10 14 11 8 13 14 13 19 20 19 22 28 31 35 35 37 40 42 46 45 47 53 56 57 61 62 60 62 60 61 66 67 68 68 68 66 66 67 68 67 66 66 68 69 70 70 70 69 69 69 67 68 68 67 68 69 69 70 69 70 68 71 70 64 62 63 64 67 64 69 70 71 73 68 70 67 70 68 70 68 65 65 67 66 64 62 63 57 58 61 58 60 53
15 15 11 9 7 11 14 12 17 21 14 12 24 25 29 31 32 33 36 37 40 44 44 45 50 51 54 57 57 61 60 64 64 64 67 66 66 65 63 64 64 65 65 63 64 65 67 69 69 70 71 71 70 69 69 65 63 64 65 68 69 72 72 70 70 69 63 61 62 62 62 62 63 63 65 65 65 68 70 67 67 66 64 63 62 62 63 65 64 64 59 55 53 61 55 59 53
11 9 5 7 7 4 5 7 10 11 17 20 28 28 32 34 31 32 36 38 41 44 47 48 48 49 51 56 57 57 57 58 61 60 62 61 64 63 64 63 63 64 64 63 64 65 66 68 69 70 70 68 69 68 67 69 72 71 70 62 62 67 65 64 64 64 62 61 63 63 63 64 67 66 68 68 67 70 70 68 65 65 64 66 68 65 63 63 64 65 63 64 58 60 61 55 62
10 7 6 3 4 4 8 12 6 7 10 26 17 23 37 27 29 32 35 39 41 45 46 46 47 51 53 55 57 58 55 61 63 63 58 58 61 63 63 64 64 63 62 63 62 63 66 66 67 66 66 67 68 68 71 72 71 69 68 66 65 66 70 70 67 64 62 62 63 65 65 64 64 67 69 65 67 65 66 66 65 64 65 64 68 67 60 60 60 63 60 53 55 57 60 60 60